Private Wetterstation Wechselburg
Wetterdaten: Samstag, 24.07.2021
Datum Zeit Temp. +2m Bodentemp. Temp.+5cm Temp. Wind Windchill X Diff Temp. Feuchte +2m Feuchte +5cm Luftdruck Regen Wind Richtung Richtung Sonnenschein Taupunkt Windchill Windben
24.07.2021 00:00 16,8 C 20,7 C 16,4 C 16,3 C 15,3 C 0,0 C 82 % 86 % 1013,9 hPa 0,0 l/m 0,0 km/h (0 Bft) NO 45 0 min 13,7 C 15,3 C 0,0 km/h (0 Bft)
24.07.2021 00:05 16,8 C 20,7 C 16,3 C 16,3 C 15,2 C 0,0 C 82 % 86 % 1013,9 hPa 0,0 l/m 0,0 km/h (0 Bft) NO 45 0 min 13,7 C 15,2 C 0,0 km/h (0 Bft)
24.07.2021 00:10 16,7 C 20,7 C 16,2 C 16,2 C 15,2 C 0,0 C 82 % 86 % 1013,9 hPa 0,0 l/m 0,0 km/h (0 Bft) NO 45 0 min 13,6 C 15,2 C 0,0 km/h (0 Bft)
24.07.2021 00:15 16,7 C 20,7 C 16,1 C 16,1 C 15,0 C 0,0 C 82 % 86 % 1013,9 hPa 0,0 l/m 0,0 km/h (0 Bft) NO 45 0 min 13,6 C 15,0 C 0,0 km/h (0 Bft)
24.07.2021 00:20 16,5 C 20,7 C 16,0 C 16,0 C 14,9 C 0,0 C 82 % 86 % 1013,9 hPa 0,0 l/m 0,0 km/h (0 Bft) NO 45 0 min 13,4 C 14,9 C 0,0 km/h (0 Bft)
24.07.2021 00:25 16,4 C 20,7 C 15,9 C 15,9 C 14,9 C 0,0 C 82 % 86 % 1013,9 hPa 0,0 l/m 0,0 km/h (0 Bft) NO 45 0 min 13,3 C 14,9 C 0,0 km/h (0 Bft)
24.07.2021 00:30 16,4 C 20,7 C 15,9 C 15,9 C 14,9 C 0,0 C 83 % 87 % 1013,9 hPa 0,0 l/m 0,0 km/h (0 Bft) NO 45 0 min 13,5 C 14,9 C 0,0 km/h (0 Bft)
24.07.2021 00:35 16,3 C 20,7 C 15,9 C 15,8 C 14,8 C 0,0 C 83 % 87 % 1013,9 hPa 0,0 l/m 0,0 km/h (0 Bft) NO 45 0 min 13,4 C 14,8 C 0,0 km/h (0 Bft)
24.07.2021 00:40 16,3 C 20,7 C 15,8 C 15,8 C 14,7 C 0,0 C 83 % 87 % 1013,9 hPa 0,0 l/m 0,0 km/h (0 Bft) NO 45 0 min 13,4 C 14,7 C 0,0 km/h (0 Bft)
24.07.2021 00:45 16,1 C 20,7 C 15,7 C 15,6 C 14,6 C 0,0 C 83 % 87 % 1013,9 hPa 0,0 l/m 0,0 km/h (0 Bft) NO 45 0 min 13,2 C 14,6 C 0,0 km/h (0 Bft)
24.07.2021 00:50 16,1 C 20,7 C 15,6 C 15,6 C 14,5 C 0,0 C 83 % 88 % 1013,9 hPa 0,0 l/m 0,0 km/h (0 Bft) NO 45 0 min 13,2 C 14,5 C 0,0 km/h (0 Bft)
24.07.2021 00:55 16,0 C 20,7 C 15,5 C 15,5 C 14,4 C 0,0 C 83 % 88 % 1013,5 hPa 0,0 l/m 0,0 km/h (0 Bft) NO 45 0 min 13,1 C 14,4 C 0,0 km/h (0 Bft)
24.07.2021 01:00 15,9 C 20,7 C 15,5 C 15,4 C 14,4 C 0,0 C 84 % 88 % 1013,5 hPa 0,0 l/m 0,0 km/h (0 Bft) NO 45 0 min 13,2 C 14,4 C 0,0 km/h (0 Bft)
24.07.2021 01:05 16,0 C 20,7 C 15,5 C 15,5 C 14,4 C 0,0 C 84 % 88 % 1013,5 hPa 0,0 l/m 0,0 km/h (0 Bft) NO 45 0 min 13,3 C 14,4 C 0,0 km/h (0 Bft)
24.07.2021 01:10 16,0 C 20,7 C 15,5 C 15,5 C 14,4 C 0,0 C 84 % 88 % 1013,5 hPa 0,0 l/m 0,0 km/h (0 Bft) NO 45 0 min 13,3 C 14,4 C 0,0 km/h (0 Bft)
24.07.2021 01:15 15,9 C 20,6 C 15,3 C 15,4 C 14,4 C 0,0 C 85 % 88 % 1013,2 hPa 0,0 l/m 0,0 km/h (0 Bft) NO 45 0 min 13,4 C 14,4 C 0,0 km/h (0 Bft)
24.07.2021 01:20 15,8 C 20,6 C 15,3 C 15,3 C 14,4 C 0,0 C 85 % 88 % 1013,2 hPa 0,0 l/m 0,0 km/h (0 Bft) NO 45 0 min 13,3 C 14,4 C 0,0 km/h (0 Bft)
24.07.2021 01:25 15,6 C 20,6 C 15,2 C 15,2 C 14,3 C 0,0 C 84 % 88 % 1013,2 hPa 0,0 l/m 0,0 km/h (0 Bft) NO 45 0 min 12,9 C 14,3 C 0,0 km/h (0 Bft)
24.07.2021 01:30 15,7 C 20,6 C 15,2 C 15,2 C 14,2 C 0,0 C 85 % 89 % 1013,2 hPa 0,0 l/m 0,0 km/h (0 Bft) NO 45 0 min 13,2 C 14,2 C 0,0 km/h (0 Bft)
24.07.2021 01:35 15,6 C 20,6 C 15,2 C 15,1 C 14,1 C 0,0 C 85 % 89 % 1013,4 hPa 0,0 l/m 0,0 km/h (0 Bft) NO 45 0 min 13,1 C 14,1 C 0,0 km/h (0 Bft)
24.07.2021 01:40 15,5 C 20,6 C 15,1 C 15,0 C 14,0 C 0,0 C 85 % 89 % 1013,4 hPa 0,0 l/m 0,0 km/h (0 Bft) NO 45 0 min 13,0 C 14,0 C 0,0 km/h (0 Bft)
24.07.2021 01:45 15,4 C 20,6 C 15,0 C 14,9 C 14,0 C 0,0 C 85 % 89 % 1013,4 hPa 0,0 l/m 0,0 km/h (0 Bft) NO 45 0 min 12,9 C 14,0 C 0,0 km/h (0 Bft)
24.07.2021 01:50 15,3 C 20,6 C 14,9 C 14,9 C 14,0 C 0,0 C 85 % 89 % 1013,4 hPa 0,0 l/m 0,0 km/h (0 Bft) NO 45 0 min 12,8 C 14,0 C 0,0 km/h (0 Bft)
24.07.2021 01:55 15,2 C 20,5 C 14,9 C 14,8 C 13,9 C 0,0 C 85 % 89 % 1013,3 hPa 0,0 l/m 0,0 km/h (0 Bft) NO 45 0 min 12,7 C 13,9 C 0,0 km/h (0 Bft)
24.07.2021 02:00 15,2 C 20,5 C 14,9 C 14,8 C 13,9 C 0,0 C 86 % 89 % 1013,3 hPa 0,0 l/m 0,0 km/h (0 Bft) NO 45 0 min 12,9 C 13,9 C 0,0 km/h (0 Bft)
24.07.2021 02:05 15,2 C 20,5 C 14,8 C 14,7 C 13,7 C 0,0 C 86 % 89 % 1013,3 hPa 0,0 l/m 0,0 km/h (0 Bft) NO 45 0 min 12,9 C 13,7 C 0,0 km/h (0 Bft)
24.07.2021 02:10 15,1 C 20,5 C 14,7 C 14,6 C 13,7 C 0,0 C 86 % 89 % 1013,3 hPa 0,0 l/m 0,0 km/h (0 Bft) NO 45 0 min 12,8 C 13,7 C 0,0 km/h (0 Bft)
24.07.2021 02:15 15,1 C 20,5 C 14,7 C 14,6 C 13,6 C 0,0 C 86 % 89 % 1013,1 hPa 0,0 l/m 0,0 km/h (0 Bft) NO 45 0 min 12,8 C 13,6 C 0,0 km/h (0 Bft)
24.07.2021 02:20 14,9 C 20,5 C 14,7 C 14,5 C 13,6 C 0,0 C 86 % 89 % 1013,1 hPa 0,0 l/m 0,0 km/h (0 Bft) NO 45 0 min 12,6 C 13,6 C 0,0 km/h (0 Bft)
24.07.2021 02:25 14,9 C 20,5 C 14,6 C 14,4 C 13,5 C 0,0 C 86 % 89 % 1013,1 hPa 0,0 l/m 0,0 km/h (0 Bft) NO 45 0 min 12,6 C 13,5 C 0,0 km/h (0 Bft)
24.07.2021 02:30 14,8 C 20,5 C 14,5 C 14,4 C 13,5 C 0,0 C 86 % 89 % 1013,1 hPa 0,0 l/m 0,0 km/h (0 Bft) NO 45 0 min 12,5 C 13,5 C 0,0 km/h (0 Bft)
24.07.2021 02:35 14,8 C 20,4 C 14,5 C 14,3 C 13,3 C 0,0 C 86 % 89 % 1013,0 hPa 0,0 l/m 0,0 km/h (0 Bft) NO 45 0 min 12,5 C 13,3 C 0,0 km/h (0 Bft)
24.07.2021 02:40 14,7 C 20,4 C 14,4 C 14,2 C 13,3 C 0,0 C 86 % 89 % 1013,0 hPa 0,0 l/m 0,0 km/h (0 Bft) NO 45 0 min 12,4 C 13,3 C 0,0 km/h (0 Bft)
24.07.2021 02:45 14,7 C 20,4 C 14,3 C 14,2 C 13,2 C 0,0 C 86 % 89 % 1013,0 hPa 0,0 l/m 0,0 km/h (0 Bft) NO 45 0 min 12,4 C 13,2 C 0,0 km/h (0 Bft)
24.07.2021 02:50 14,7 C 20,4 C 14,3 C 14,2 C 13,1 C 0,0 C 86 % 89 % 1013,0 hPa 0,0 l/m 0,0 km/h (0 Bft) NO 45 0 min 12,4 C 13,1 C 0,0 km/h (0 Bft)
24.07.2021 02:55 14,5 C 20,4 C 14,2 C 14,0 C 13,1 C 0,0 C 86 % 89 % 1012,9 hPa 0,0 l/m 0,0 km/h (0 Bft) NO 45 0 min 12,2 C 13,1 C 0,0 km/h (0 Bft)
24.07.2021 03:00 14,4 C 20,4 C 14,2 C 14,0 C 13,1 C 0,0 C 86 % 89 % 1012,9 hPa 0,0 l/m 0,0 km/h (0 Bft) NO 45 0 min 12,1 C 13,1 C 0,0 km/h (0 Bft)
24.07.2021 03:05 14,4 C 20,4 C 14,1 C 14,0 C 13,1 C 0,0 C 86 % 89 % 1012,9 hPa 0,0 l/m 0,0 km/h (0 Bft) NO 45 0 min 12,1 C 13,1 C 0,0 km/h (0 Bft)
24.07.2021 03:10 14,3 C 20,4 C 14,1 C 13,9 C 13,1 C 0,0 C 86 % 90 % 1012,9 hPa 0,0 l/m 0,0 km/h (0 Bft) NO 45 0 min 12,0 C 13,1 C 0,0 km/h (0 Bft)
24.07.2021 03:15 14,2 C 20,4 C 14,0 C 13,8 C 12,9 C 0,0 C 86 % 90 % 1013,2 hPa 0,0 l/m 0,0 km/h (0 Bft) NO 45 0 min 11,9 C 12,9 C 0,0 km/h (0 Bft)
24.07.2021 03:20 14,3 C 20,4 C 13,9 C 13,8 C 12,8 C 0,0 C 86 % 90 % 1013,2 hPa 0,0 l/m 0,0 km/h (0 Bft) NO 45 0 min 12,0 C 12,8 C 0,0 km/h (0 Bft)
24.07.2021 03:25 14,1 C 20,4 C 13,9 C 13,6 C 12,7 C 0,0 C 86 % 90 % 1013,2 hPa 0,0 l/m 0,0 km/h (0 Bft) NO 45 0 min 11,8 C 12,7 C 0,0 km/h (0 Bft)
24.07.2021 03:30 14,0 C 20,4 C 13,9 C 13,6 C 12,8 C 0,0 C 86 % 90 % 1013,2 hPa 0,0 l/m 0,0 km/h (0 Bft) NO 45 0 min 11,7 C 12,8 C 0,0 km/h (0 Bft)
24.07.2021 03:35 14,0 C 20,4 C 13,9 C 13,6 C 12,9 C 0,0 C 86 % 90 % 1012,6 hPa 0,0 l/m 0,0 km/h (0 Bft) NO 45 0 min 11,7 C 12,9 C 0,0 km/h (0 Bft)
24.07.2021 03:40 14,0 C 20,4 C 13,9 C 13,6 C 12,9 C 0,0 C 86 % 90 % 1012,6 hPa 0,0 l/m 0,0 km/h (0 Bft) NO 45 0 min 11,7 C 12,9 C 0,0 km/h (0 Bft)
24.07.2021 03:45 13,9 C 20,3 C 13,8 C 13,6 C 12,9 C 0,0 C 87 % 90 % 1012,6 hPa 0,0 l/m 0,0 km/h (0 Bft) NO 45 0 min 11,8 C 12,9 C 0,0 km/h (0 Bft)
24.07.2021 03:50 13,9 C 20,3 C 13,8 C 13,6 C 12,9 C 0,0 C 87 % 90 % 1012,6 hPa 0,0 l/m 0,0 km/h (0 Bft) NO 45 0 min 11,8 C 12,9 C 0,0 km/h (0 Bft)
24.07.2021 03:55 13,8 C 20,3 C 13,7 C 13,5 C 12,9 C 0,0 C 87 % 90 % 1012,4 hPa 0,0 l/m 0,0 km/h (0 Bft) NO 45 0 min 11,7 C 12,9 C 0,0 km/h (0 Bft)
24.07.2021 04:00 13,9 C 20,3 C 13,7 C 13,6 C 12,9 C 0,0 C 87 % 90 % 1012,4 hPa 0,0 l/m 0,0 km/h (0 Bft) NO 45 0 min 11,8 C 12,9 C 0,0 km/h (0 Bft)
24.07.2021 04:05 13,8 C 20,3 C 13,7 C 13,5 C 12,9 C 0,0 C 87 % 90 % 1012,4 hPa 0,0 l/m 0,0 km/h (0 Bft) NO 45 0 min 11,7 C 12,9 C 0,0 km/h (0 Bft)
24.07.2021 04:10 13,8 C 20,3 C 13,7 C 13,5 C 12,9 C 0,0 C 87 % 90 % 1012,4 hPa 0,0 l/m 0,0 km/h (0 Bft) NO 45 0 min 11,7 C 12,9 C 0,0 km/h (0 Bft)
24.07.2021 04:15 13,6 C 20,2 C 13,6 C 13,3 C 12,6 C 0,0 C 87 % 90 % 1012,2 hPa 0,0 l/m 0,0 km/h (0 Bft) NO 45 0 min 11,5 C 12,6 C 0,0 km/h (0 Bft)
24.07.2021 04:20 13,6 C 20,2 C 13,5 C 13,2 C 12,5 C 0,0 C 87 % 90 % 1012,2 hPa 0,0 l/m 0,0 km/h (0 Bft) NO 45 0 min 11,5 C 12,5 C 0,0 km/h (0 Bft)
24.07.2021 04:25 13,5 C 20,2 C 13,4 C 13,1 C 12,4 C 0,0 C 87 % 90 % 1012,2 hPa 0,0 l/m 0,0 km/h (0 Bft) NO 45 0 min 11,4 C 12,4 C 0,0 km/h (0 Bft)
24.07.2021 04:30 13,4 C 20,2 C 13,4 C 13,1 C 12,4 C 0,0 C 87 % 90 % 1012,2 hPa 0,0 l/m 0,0 km/h (0 Bft) NO 45 0 min 11,3 C 12,4 C 0,0 km/h (0 Bft)
24.07.2021 04:35 13,4 C 20,2 C 13,3 C 13,0 C 12,3 C 0,0 C 87 % 90 % 1012,2 hPa 0,0 l/m 0,0 km/h (0 Bft) NO 45 0 min 11,3 C 12,3 C 0,0 km/h (0 Bft)
24.07.2021 04:40 13,3 C 20,2 C 13,4 C 13,0 C 12,3 C 0,0 C 87 % 91 % 1012,2 hPa 0,0 l/m 0,0 km/h (0 Bft) NO 45 0 min 11,2 C 12,3 C 0,0 km/h (0 Bft)
24.07.2021 04:45 13,2 C 20,2 C 13,3 C 12,9 C 12,2 C 0,0 C 87 % 91 % 1012,2 hPa 0,0 l/m 0,0 km/h (0 Bft) NO 45 0 min 11,1 C 12,2 C 0,0 km/h (0 Bft)
24.07.2021 04:50 13,2 C 20,1 C 13,3 C 12,8 C 12,1 C 0,0 C 87 % 91 % 1012,2 hPa 0,0 l/m 0,0 km/h (0 Bft) NO 45 0 min 11,1 C 12,1 C 0,0 km/h (0 Bft)
24.07.2021 04:55 13,2 C 20,1 C 13,2 C 12,8 C 12,0 C 0,0 C 87 % 91 % 1012,2 hPa 0,0 l/m 0,0 km/h (0 Bft) NO 45 0 min 11,1 C 12,0 C 0,0 km/h (0 Bft)
24.07.2021 05:00 13,1 C 20,1 C 13,2 C 12,8 C 12,1 C 0,0 C 87 % 91 % 1012,2 hPa 0,0 l/m 0,0 km/h (0 Bft) NO 45 0 min 11,0 C 12,1 C 0,0 km/h (0 Bft)
24.07.2021 05:05 13,1 C 20,1 C 13,2 C 12,8 C 12,2 C 0,0 C 87 % 91 % 1012,2 hPa 0,0 l/m 0,0 km/h (0 Bft) NO 45 0 min 11,0 C 12,2 C 0,0 km/h (0 Bft)
24.07.2021 05:10 13,0 C 20,1 C 13,3 C 12,8 C 12,4 C 0,0 C 87 % 91 % 1012,2 hPa 0,0 l/m 0,0 km/h (0 Bft) NO 45 0 min 10,9 C 12,4 C 0,0 km/h (0 Bft)
24.07.2021 05:15 13,1 C 20,1 C 13,3 C 12,9 C 12,4 C 0,0 C 87 % 91 % 1011,9 hPa 0,0 l/m 0,0 km/h (0 Bft) NO 45 0 min 11,0 C 12,4 C 0,0 km/h (0 Bft)
24.07.2021 05:20 13,1 C 20,1 C 13,2 C 12,8 C 12,3 C 0,0 C 87 % 91 % 1011,9 hPa 0,0 l/m 0,0 km/h (0 Bft) NO 45 0 min 11,0 C 12,3 C 0,0 km/h (0 Bft)
24.07.2021 05:25 12,9 C 20,0 C 13,2 C 12,6 C 12,1 C 0,0 C 87 % 91 % 1011,9 hPa 0,0 l/m 0,0 km/h (0 Bft) NO 45 0 min 10,8 C 12,1 C 0,0 km/h (0 Bft)
24.07.2021 05:30 12,9 C 20,0 C 13,1 C 12,6 C 12,1 C 0,0 C 87 % 91 % 1011,9 hPa 0,0 l/m 0,0 km/h (0 Bft) NO 45 0 min 10,8 C 12,1 C 0,0 km/h (0 Bft)
24.07.2021 05:35 12,8 C 20,0 C 13,1 C 12,6 C 12,1 C 0,0 C 87 % 91 % 1012,2 hPa 0,0 l/m 0,0 km/h (0 Bft) NO 45 0 min 10,7 C 12,1 C 0,0 km/h (0 Bft)
24.07.2021 05:40 12,9 C 20,0 C 13,1 C 12,6 C 12,1 C 0,0 C 87 % 91 % 1012,2 hPa 0,0 l/m 0,0 km/h (0 Bft) NO 45 0 min 10,8 C 12,1 C 0,0 km/h (0 Bft)
24.07.2021 05:45 12,8 C 20,0 C 13,1 C 12,6 C 12,1 C 0,0 C 88 % 91 % 1012,2 hPa 0,0 l/m 0,0 km/h (0 Bft) NO 45 0 min 10,9 C 12,1 C 0,0 km/h (0 Bft)
24.07.2021 05:50 12,8 C 20,0 C 13,1 C 12,6 C 12,3 C 0,0 C 88 % 91 % 1012,2 hPa 0,0 l/m 0,0 km/h (0 Bft) NO 45 0 min 10,9 C 12,3 C 0,0 km/h (0 Bft)
24.07.2021 05:55 12,7 C 20,0 C 13,3 C 12,6 C 12,5 C 0,0 C 88 % 91 % 1012,3 hPa 0,0 l/m 0,0 km/h (0 Bft) NO 45 0 min 10,8 C 12,5 C 0,0 km/h (0 Bft)
24.07.2021 06:00 12,8 C 20,0 C 13,3 C 12,7 C 12,5 C 0,0 C 88 % 91 % 1012,3 hPa 0,0 l/m 0,0 km/h (0 Bft) NO 45 0 min 10,9 C 12,5 C 0,0 km/h (0 Bft)
24.07.2021 06:05 12,7 C 19,9 C 13,4 C 12,7 C 12,6 C 0,0 C 88 % 91 % 1012,3 hPa 0,0 l/m 0,0 km/h (0 Bft) NO 45 0 min 10,8 C 12,6 C 0,0 km/h (0 Bft)
24.07.2021 06:10 12,8 C 19,9 C 13,4 C 12,7 C 12,6 C 0,0 C 88 % 91 % 1012,3 hPa 0,0 l/m 0,0 km/h (0 Bft) NO 45 0 min 10,9 C 12,6 C 0,0 km/h (0 Bft)
24.07.2021 06:15 12,8 C 19,9 C 13,5 C 12,8 C 12,7 C 0,0 C 88 % 91 % 1012,6 hPa 0,0 l/m 0,0 km/h (0 Bft) NO 45 0 min 10,9 C 12,7 C 0,0 km/h (0 Bft)
24.07.2021 06:20 12,8 C 19,9 C 13,5 C 12,8 C 12,8 C 0,0 C 88 % 91 % 1012,6 hPa 0,0 l/m 0,0 km/h (0 Bft) NO 45 0 min 10,9 C 12,8 C 0,0 km/h (0 Bft)
24.07.2021 06:25 12,8 C 19,9 C 13,5 C 13,0 C 13,0 C 0,2 C 88 % 91 % 1012,6 hPa 0,0 l/m 0,0 km/h (0 Bft) NO 45 0 min 10,9 C 13,0 C 0,0 km/h (0 Bft)
24.07.2021 06:30 12,9 C 19,9 C 13,6 C 13,1 C 13,1 C 0,2 C 88 % 91 % 1012,6 hPa 0,0 l/m 0,0 km/h (0 Bft) NO 45 0 min 11,0 C 13,1 C 0,0 km/h (0 Bft)
24.07.2021 06:35 12,9 C 19,9 C 13,7 C 13,3 C 13,3 C 0,4 C 88 % 91 % 1012,8 hPa 0,0 l/m 0,0 km/h (0 Bft) NO 45 0 min 11,0 C 13,3 C 0,0 km/h (0 Bft)
24.07.2021 06:40 12,8 C 19,9 C 13,8 C 13,5 C 13,5 C 0,7 C 88 % 91 % 1012,8 hPa 0,0 l/m 0,0 km/h (0 Bft) NO 45 0 min 10,9 C 13,5 C 0,0 km/h (0 Bft)
24.07.2021 06:45 12,9 C 19,9 C 13,9 C 13,7 C 13,7 C 0,8 C 88 % 91 % 1012,8 hPa 0,0 l/m 0,0 km/h (0 Bft) NO 45 0 min 11,0 C 13,7 C 0,0 km/h (0 Bft)
24.07.2021 06:50 12,9 C 19,9 C 14,1 C 13,9 C 13,9 C 1,0 C 88 % 91 % 1012,8 hPa 0,0 l/m 0,0 km/h (0 Bft) NO 45 0 min 11,0 C 13,9 C 0,0 km/h (0 Bft)
24.07.2021 06:55 12,9 C 19,9 C 14,3 C 14,1 C 14,1 C 1,2 C 88 % 91 % 1012,8 hPa 0,0 l/m 0,0 km/h (0 Bft) NO 45 0 min 11,0 C 14,1 C 0,0 km/h (0 Bft)
24.07.2021 07:00 13,1 C 19,9 C 14,7 C 14,4 C 14,4 C 1,3 C 88 % 91 % 1012,8 hPa 0,0 l/m 0,0 km/h (0 Bft) NO 45 0 min 11,2 C 14,4 C 0,0 km/h (0 Bft)
24.07.2021 07:05 13,0 C 19,9 C 14,7 C 14,6 C 14,6 C 1,6 C 88 % 91 % 1012,8 hPa 0,0 l/m 0,0 km/h (0 Bft) NO 45 0 min 11,1 C 14,6 C 0,0 km/h (0 Bft)
24.07.2021 07:10 13,0 C 19,9 C 14,7 C 14,6 C 14,6 C 1,6 C 88 % 91 % 1012,8 hPa 0,0 l/m 0,0 km/h (0 Bft) NO 45 0 min 11,1 C 14,6 C 0,0 km/h (0 Bft)
24.07.2021 07:15 13,2 C 19,8 C 15,5 C 17,2 C 17,2 C 4,0 C 87 % 91 % 1013,1 hPa 0,0 l/m 0,0 km/h (0 Bft) NO 45 5 min 11,1 C 17,2 C 0,0 km/h (0 Bft)
24.07.2021 07:20 13,5 C 19,8 C 15,5 C 18,1 C 18,1 C 4,6 C 87 % 91 % 1013,1 hPa 0,0 l/m 0,0 km/h (0 Bft) NO 45 5 min 11,4 C 18,1 C 0,0 km/h (0 Bft)
24.07.2021 07:25 13,6 C 19,8 C 15,7 C 18,4 C 18,4 C 4,8 C 87 % 91 % 1013,1 hPa 0,0 l/m 0,0 km/h (0 Bft) NO 45 5 min 11,5 C 18,4 C 0,0 km/h (0 Bft)
24.07.2021 07:30 13,9 C 19,7 C 16,0 C 20,1 C 20,1 C 6,2 C 87 % 90 % 1013,1 hPa 0,0 l/m 0,0 km/h (0 Bft) NO 45 5 min 11,8 C 20,1 C 0,0 km/h (0 Bft)
24.07.2021 07:35 14,1 C 19,7 C 16,3 C 22,2 C 22,2 C 8,1 C 87 % 90 % 1012,9 hPa 0,0 l/m 0,0 km/h (0 Bft) NO 45 5 min 12,0 C 22,2 C 0,0 km/h (0 Bft)
24.07.2021 07:40 14,4 C 19,6 C 16,5 C 23,2 C 23,2 C 8,8 C 87 % 90 % 1012,9 hPa 0,0 l/m 0,0 km/h (0 Bft) NO 45 5 min 12,3 C 23,2 C 0,0 km/h (0 Bft)
24.07.2021 07:45 14,9 C 19,6 C 16,5 C 24,4 C 24,4 C 9,5 C 87 % 89 % 1012,9 hPa 0,0 l/m 0,0 km/h (0 Bft) NO 45 5 min 12,8 C 24,4 C 0,0 km/h (0 Bft)
24.07.2021 07:50 15,1 C 19,6 C 16,6 C 25,1 C 25,1 C 10,0 C 87 % 89 % 1012,9 hPa 0,0 l/m 0,0 km/h (0 Bft) NO 45 5 min 13,0 C 25,1 C 0,0 km/h (0 Bft)
24.07.2021 07:55 15,6 C 19,6 C 16,7 C 25,8 C 25,8 C 10,2 C 87 % 89 % 1012,6 hPa 0,0 l/m 0,0 km/h (0 Bft) NO 45 5 min 13,4 C 25,8 C 0,0 km/h (0 Bft)
24.07.2021 08:00 16,1 C 19,6 C 16,7 C 26,0 C 26,0 C 9,9 C 87 % 89 % 1012,6 hPa 0,0 l/m 0,0 km/h (0 Bft) NO 45 5 min 13,9 C 26,0 C 0,0 km/h (0 Bft)
24.07.2021 08:05 16,7 C 19,6 C 16,8 C 25,6 C 25,6 C 8,9 C 87 % 89 % 1012,6 hPa 0,0 l/m 0,0 km/h (0 Bft) NO 45 5 min 14,5 C 25,6 C 0,0 km/h (0 Bft)
24.07.2021 08:10 17,1 C 19,6 C 16,8 C 26,0 C 26,0 C 8,9 C 87 % 89 % 1012,6 hPa 0,0 l/m 0,0 km/h (0 Bft) NO 45 5 min 14,9 C 26,0 C 0,0 km/h (0 Bft)
24.07.2021 08:15 17,7 C 19,6 C 17,0 C 27,0 C 27,0 C 9,3 C 87 % 89 % 1012,4 hPa 0,0 l/m 0,0 km/h (0 Bft) NO 45 5 min 15,5 C 27,0 C 0,0 km/h (0 Bft)
24.07.2021 08:20 18,2 C 19,6 C 17,1 C 27,5 C 27,5 C 9,3 C 87 % 88 % 1012,4 hPa 0,0 l/m 0,0 km/h (0 Bft) NO 45 5 min 16,0 C 27,5 C 0,0 km/h (0 Bft)
24.07.2021 08:25 18,9 C 19,5 C 17,2 C 28,1 C 28,1 C 9,2 C 86 % 88 % 1012,4 hPa 0,0 l/m 0,0 km/h (0 Bft) NO 45 5 min 16,5 C 28,1 C 0,0 km/h (0 Bft)
24.07.2021 08:30 19,1 C 19,5 C 17,3 C 28,5 C 28,5 C 9,4 C 86 % 88 % 1012,4 hPa 0,0 l/m 0,0 km/h (0 Bft) NO 45 5 min 16,7 C 28,5 C 0,0 km/h (0 Bft)
24.07.2021 08:35 19,7 C 19,5 C 17,4 C 28,6 C 28,6 C 8,9 C 85 % 88 % 1012,4 hPa 0,0 l/m 0,0 km/h (0 Bft) NO 45 5 min 17,1 C 28,6 C 0,0 km/h (0 Bft)
24.07.2021 08:40 19,9 C 19,5 C 17,5 C 28,7 C 28,7 C 8,8 C 84 % 88 % 1012,4 hPa 0,0 l/m 0,0 km/h (0 Bft) NO 45 5 min 17,1 C 28,7 C 2,3 km/h (1 Bft)
24.07.2021 08:45 19,9 C 19,5 C 17,8 C 27,6 C 27,6 C 7,7 C 82 % 88 % 1012,4 hPa 0,0 l/m 0,6 km/h (0 Bft) O-SO 112 5 min 16,7 C 27,6 C 0,0 km/h (0 Bft)
24.07.2021 08:50 20,0 C 19,4 C 17,8 C 28,4 C 28,4 C 8,4 C 82 % 87 % 1012,4 hPa 0,0 l/m 0,6 km/h (0 Bft) O-SO 112 5 min 16,8 C 28,4 C 0,0 km/h (0 Bft)
24.07.2021 08:55 20,5 C 19,4 C 17,9 C 29,7 C 29,7 C 9,2 C 81 % 87 % 1012,2 hPa 0,0 l/m 0,0 km/h (0 Bft) O-SO 112 5 min 17,1 C 29,7 C 0,0 km/h (0 Bft)
24.07.2021 09:00 20,7 C 19,4 C 18,0 C 30,2 C 30,2 C 9,5 C 80 % 87 % 1012,2 hPa 0,0 l/m 0,0 km/h (0 Bft) O-SO 112 5 min 17,1 C 30,2 C 0,0 km/h (0 Bft)
24.07.2021 09:05 21,1 C 19,4 C 18,3 C 30,2 C 30,2 C 9,1 C 78 % 87 % 1012,2 hPa 0,0 l/m 0,2 km/h (0 Bft) O-SO 112 5 min 17,1 C 30,2 C 0,0 km/h (0 Bft)
24.07.2021 09:10 21,2 C 19,3 C 18,3 C 30,5 C 30,5 C 9,3 C 78 % 86 % 1012,2 hPa 0,0 l/m 0,2 km/h (0 Bft) O-SO 112 5 min 17,2 C 30,5 C 0,0 km/h (0 Bft)
24.07.2021 09:15 21,9 C 19,4 C 18,4 C 31,0 C 31,0 C 9,1 C 76 % 86 % 1012,1 hPa 0,0 l/m 0,0 km/h (0 Bft) O-SO 112 5 min 17,5 C 31,0 C 0,0 km/h (0 Bft)
24.07.2021 09:20 22,1 C 19,3 C 18,5 C 29,8 C 29,8 C 7,7 C 75 % 86 % 1012,1 hPa 0,0 l/m 0,0 km/h (0 Bft) O-SO 112 5 min 17,5 C 29,8 C 0,0 km/h (0 Bft)
24.07.2021 09:25 22,3 C 19,3 C 18,7 C 27,2 C 27,2 C 4,9 C 73 % 85 % 1012,1 hPa 0,0 l/m 0,0 km/h (0 Bft) O-SO 112 5 min 17,2 C 27,2 C 0,0 km/h (0 Bft)
24.07.2021 09:30 22,0 C 19,3 C 18,9 C 26,0 C 26,0 C 4,0 C 72 % 84 % 1012,1 hPa 0,0 l/m 0,0 km/h (0 Bft) O-SO 112 5 min 16,7 C 26,0 C 0,0 km/h (0 Bft)
24.07.2021 09:35 22,1 C 19,3 C 19,1 C 25,1 C 25,1 C 3,0 C 73 % 84 % 1012,1 hPa 0,0 l/m 0,2 km/h (0 Bft) O-SO 112 0 min 17,0 C 25,1 C 0,0 km/h (0 Bft)
24.07.2021 09:40 22,3 C 19,4 C 19,3 C 25,1 C 25,1 C 2,8 C 73 % 84 % 1012,1 hPa 0,0 l/m 0,2 km/h (0 Bft) NW 315 0 min 17,2 C 25,1 C 2,6 km/h (1 Bft)
24.07.2021 09:45 22,2 C 19,3 C 19,5 C 24,7 C 24,7 C 2,5 C 72 % 83 % 1012,1 hPa 0,0 l/m 0,3 km/h (0 Bft) W-NW 292 0 min 16,9 C 24,7 C 0,0 km/h (0 Bft)
24.07.2021 09:50 22,3 C 19,3 C 19,5 C 24,4 C 24,4 C 2,1 C 72 % 83 % 1012,1 hPa 0,0 l/m 0,8 km/h (0 Bft) W 270 0 min 17,0 C 24,4 C 2,1 km/h (1 Bft)
24.07.2021 09:55 22,1 C 19,3 C 19,5 C 24,2 C 24,2 C 2,1 C 71 % 82 % 1012,1 hPa 0,0 l/m 1,1 km/h (1 Bft) W 270 0 min 16,6 C 24,2 C 0,0 km/h (0 Bft)
24.07.2021 10:00 22,1 C 19,3 C 19,7 C 24,5 C 24,5 C 2,4 C 71 % 81 % 1012,1 hPa 0,0 l/m 0,6 km/h (0 Bft) W 270 0 min 16,6 C 24,5 C 5,0 km/h (1 Bft)
24.07.2021 10:05 22,3 C 19,3 C 19,9 C 24,9 C 24,9 C 2,6 C 72 % 82 % 1012,1 hPa 0,0 l/m 0,2 km/h (0 Bft) S 180 0 min 17,0 C 24,9 C 2,6 km/h (1 Bft)
24.07.2021 10:10 22,4 C 19,3 C 19,9 C 25,0 C 25,0 C 2,6 C 71 % 82 % 1012,1 hPa 0,0 l/m 0,2 km/h (0 Bft) S 180 0 min 16,9 C 25,0 C 0,0 km/h (0 Bft)
24.07.2021 10:15 22,7 C 19,4 C 20,1 C 25,1 C 25,1 C 2,4 C 71 % 82 % 1012,0 hPa 0,0 l/m 0,2 km/h (0 Bft) W 270 0 min 17,2 C 25,1 C 0,0 km/h (0 Bft)
24.07.2021 10:20 22,7 C 19,4 C 20,1 C 25,1 C 25,1 C 2,4 C 70 % 81 % 1012,0 hPa 0,0 l/m 0,0 km/h (0 Bft) W 270 0 min 16,9 C 25,1 C 0,0 km/h (0 Bft)
24.07.2021 10:25 22,8 C 19,3 C 20,3 C 25,5 C 25,5 C 2,7 C 70 % 81 % 1012,0 hPa 0,0 l/m 0,0 km/h (0 Bft) W 270 0 min 17,0 C 25,5 C 0,0 km/h (0 Bft)
24.07.2021 10:30 22,9 C 19,3 C 20,4 C 25,9 C 25,9 C 3,0 C 70 % 81 % 1012,0 hPa 0,0 l/m 0,0 km/h (0 Bft) W 270 0 min 17,1 C 25,9 C 0,0 km/h (0 Bft)
24.07.2021 10:35 23,0 C 19,3 C 20,5 C 27,4 C 27,4 C 4,4 C 69 % 81 % 1011,8 hPa 0,0 l/m 0,0 km/h (0 Bft) W 270 5 min 17,0 C 27,4 C 0,0 km/h (0 Bft)
24.07.2021 10:40 23,2 C 19,3 C 20,7 C 28,4 C 28,4 C 5,2 C 69 % 81 % 1011,8 hPa 0,0 l/m 0,2 km/h (0 Bft) W 270 5 min 17,2 C 28,4 C 0,0 km/h (0 Bft)
24.07.2021 10:45 23,5 C 19,3 C 21,1 C 29,7 C 29,7 C 6,2 C 69 % 80 % 1011,8 hPa 0,0 l/m 0,5 km/h (0 Bft) NW 315 5 min 17,5 C 29,7 C 3,1 km/h (1 Bft)
24.07.2021 10:50 23,9 C 19,3 C 21,6 C 30,3 C 30,3 C 6,4 C 68 % 79 % 1011,8 hPa 0,0 l/m 0,8 km/h (0 Bft) W-SW 247 5 min 17,6 C 30,3 C 0,0 km/h (0 Bft)
24.07.2021 10:55 24,2 C 19,4 C 21,8 C 32,7 C 32,7 C 8,5 C 68 % 79 % 1011,8 hPa 0,0 l/m 0,6 km/h (0 Bft) W-SW 247 5 min 17,9 C 32,7 C 0,0 km/h (0 Bft)
24.07.2021 11:00 24,3 C 19,4 C 21,8 C 32,2 C 32,2 C 7,9 C 67 % 77 % 1011,8 hPa 0,0 l/m 0,2 km/h (0 Bft) NW 315 5 min 17,8 C 32,2 C 0,0 km/h (0 Bft)
24.07.2021 11:05 24,6 C 19,4 C 22,2 C 31,8 C 31,8 C 7,2 C 65 % 75 % 1011,8 hPa 0,0 l/m 0,5 km/h (0 Bft) N-NW 337 5 min 17,6 C 31,8 C 0,0 km/h (0 Bft)
24.07.2021 11:10 24,7 C 19,4 C 22,3 C 31,4 C 31,4 C 6,7 C 65 % 75 % 1011,8 hPa 0,0 l/m 0,6 km/h (0 Bft) SW 225 5 min 17,7 C 31,4 C 0,0 km/h (0 Bft)
24.07.2021 11:15 24,9 C 19,4 C 22,3 C 31,3 C 31,3 C 6,4 C 64 % 76 % 1011,8 hPa 0,0 l/m 0,3 km/h (0 Bft) W-SW 247 5 min 17,6 C 31,3 C 0,0 km/h (0 Bft)
24.07.2021 11:20 25,1 C 19,3 C 22,3 C 30,4 C 30,4 C 5,3 C 64 % 76 % 1011,8 hPa 0,0 l/m 0,2 km/h (0 Bft) S-SW 202 5 min 17,8 C 30,4 C 3,1 km/h (1 Bft)
24.07.2021 11:25 25,1 C 19,4 C 22,5 C 29,2 C 29,2 C 4,1 C 63 % 74 % 1011,8 hPa 0,0 l/m 0,6 km/h (0 Bft) NW 315 5 min 17,5 C 29,2 C 2,1 km/h (1 Bft)
24.07.2021 11:30 25,2 C 19,4 C 22,7 C 28,5 C 28,5 C 3,3 C 63 % 74 % 1011,8 hPa 0,0 l/m 1,0 km/h (0 Bft) W-SW 247 5 min 17,6 C 28,5 C 7,1 km/h (2 Bft)
24.07.2021 11:35 25,5 C 19,4 C 23,0 C 28,0 C 28,0 C 2,5 C 61 % 71 % 1011,3 hPa 0,0 l/m 1,0 km/h (0 Bft) SO 135 0 min 17,4 C 28,0 C 0,0 km/h (0 Bft)
24.07.2021 11:40 25,5 C 19,4 C 23,1 C 28,0 C 28,0 C 2,5 C 62 % 71 % 1011,3 hPa 0,0 l/m 0,6 km/h (0 Bft) N-NW 337 0 min 17,7 C 28,0 C 0,0 km/h (0 Bft)
24.07.2021 11:45 25,6 C 19,4 C 23,0 C 28,1 C 28,1 C 2,5 C 61 % 71 % 1011,3 hPa 0,0 l/m 0,2 km/h (0 Bft) N-NW 337 0 min 17,5 C 28,1 C 1,9 km/h (1 Bft)
24.07.2021 11:50 25,7 C 19,4 C 23,4 C 28,2 C 28,2 C 2,5 C 61 % 68 % 1011,3 hPa 0,0 l/m 0,3 km/h (0 Bft) N-NW 337 0 min 17,6 C 28,2 C 3,1 km/h (1 Bft)
24.07.2021 11:55 26,0 C 19,5 C 23,9 C 28,2 C 28,2 C 2,2 C 60 % 67 % 1011,2 hPa 0,0 l/m 1,0 km/h (0 Bft) NW 315 0 min 17,6 C 28,2 C 0,0 km/h (0 Bft)
24.07.2021 12:00 26,2 C 19,5 C 23,9 C 28,5 C 28,5 C 2,3 C 60 % 67 % 1011,2 hPa 0,0 l/m 0,8 km/h (0 Bft) NW 315 0 min 17,8 C 28,5 C 0,0 km/h (0 Bft)
24.07.2021 12:05 26,5 C 19,5 C 24,3 C 30,4 C 30,4 C 3,9 C 59 % 67 % 1011,2 hPa 0,0 l/m 0,3 km/h (0 Bft) SW 225 5 min 17,8 C 30,4 C 0,0 km/h (0 Bft)
24.07.2021 12:10 26,6 C 19,5 C 24,2 C 32,0 C 32,0 C 5,4 C 59 % 67 % 1011,2 hPa 0,0 l/m 0,8 km/h (0 Bft) W-NW 292 5 min 17,9 C 32,0 C 2,3 km/h (1 Bft)
24.07.2021 12:15 26,9 C 19,5 C 24,4 C 33,5 C 33,5 C 6,6 C 58 % 67 % 1011,2 hPa 0,0 l/m 0,5 km/h (0 Bft) SO 135 5 min 17,9 C 33,5 C 0,0 km/h (0 Bft)
24.07.2021 12:20 27,1 C 19,5 C 24,5 C 34,0 C 34,0 C 6,9 C 57 % 68 % 1011,2 hPa 0,0 l/m 0,3 km/h (0 Bft) W-SW 247 5 min 17,8 C 34,0 C 0,0 km/h (0 Bft)
24.07.2021 12:25 27,4 C 19,5 C 24,8 C 34,8 C 34,8 C 7,4 C 55 % 66 % 1011,2 hPa 0,0 l/m 0,3 km/h (0 Bft) W-SW 247 5 min 17,5 C 34,8 C 0,0 km/h (0 Bft)
24.07.2021 12:30 27,6 C 19,5 C 24,9 C 35,4 C 35,4 C 7,8 C 55 % 66 % 1011,2 hPa 0,0 l/m 0,2 km/h (0 Bft) SW 225 5 min 17,7 C 35,4 C 0,0 km/h (0 Bft)
24.07.2021 12:35 27,9 C 19,5 C 25,0 C 34,5 C 34,5 C 6,6 C 53 % 63 % 1010,9 hPa 0,0 l/m 0,2 km/h (0 Bft) NW 315 5 min 17,4 C 34,5 C 0,0 km/h (0 Bft)
24.07.2021 12:40 28,3 C 19,5 C 25,1 C 34,8 C 34,8 C 6,5 C 51 % 62 % 1010,9 hPa 0,0 l/m 0,2 km/h (0 Bft) SW 225 5 min 17,2 C 34,8 C 0,0 km/h (0 Bft)
24.07.2021 12:45 29,1 C 19,6 C 25,6 C 35,9 C 35,9 C 6,8 C 51 % 60 % 1010,9 hPa 0,0 l/m 0,3 km/h (0 Bft) N-NW 337 5 min 17,9 C 35,9 C 0,0 km/h (0 Bft)
24.07.2021 12:50 29,3 C 19,6 C 25,9 C 36,5 C 36,5 C 7,2 C 49 % 57 % 1010,9 hPa 0,0 l/m 0,6 km/h (0 Bft) NW 315 5 min 17,5 C 36,5 C 3,7 km/h (1 Bft)
24.07.2021 12:55 29,4 C 19,6 C 26,3 C 35,8 C 35,8 C 6,4 C 47 % 56 % 1010,7 hPa 0,0 l/m 1,0 km/h (0 Bft) SO 135 5 min 16,9 C 35,8 C 0,0 km/h (0 Bft)
24.07.2021 13:00 29,9 C 19,6 C 26,4 C 36,3 C 36,3 C 6,4 C 47 % 58 % 1010,7 hPa 0,0 l/m 1,0 km/h (0 Bft) S 180 5 min 17,3 C 36,3 C 0,0 km/h (0 Bft)
24.07.2021 13:05 30,1 C 19,6 C 26,4 C 36,5 C 36,5 C 6,4 C 46 % 59 % 1010,7 hPa 0,0 l/m 0,8 km/h (0 Bft) W 270 5 min 17,2 C 36,5 C 0,0 km/h (0 Bft)
24.07.2021 13:10 30,1 C 19,6 C 26,4 C 36,5 C 36,5 C 6,4 C 46 % 59 % 1010,7 hPa 0,0 l/m 0,8 km/h (0 Bft) W 270 5 min 17,2 C 36,5 C 0,0 km/h (0 Bft)
24.07.2021 13:15 30,1 C 19,7 C 27,8 C 35,0 C 35,0 C 4,9 C 42 % 51 % 1010,9 hPa 0,0 l/m 2,6 km/h (1 Bft) O-NO 67 5 min 15,7 C 35,0 C 3,1 km/h (1 Bft)
24.07.2021 13:20 29,9 C 19,7 C 27,9 C 34,8 C 34,8 C 4,9 C 43 % 50 % 1010,9 hPa 0,0 l/m 3,7 km/h (1 Bft) N-NO 22 5 min 15,9 C 34,8 C 0,0 km/h (0 Bft)
24.07.2021 13:25 30,0 C 19,7 C 27,7 C 35,3 C 35,3 C 5,3 C 44 % 51 % 1010,9 hPa 0,0 l/m 2,3 km/h (1 Bft) S-SO 157 5 min 16,4 C 35,3 C 3,1 km/h (1 Bft)
24.07.2021 13:30 30,2 C 19,8 C 27,7 C 35,6 C 35,6 C 5,4 C 44 % 51 % 1010,9 hPa 0,0 l/m 1,6 km/h (1 Bft) O-NO 67 5 min 16,6 C 35,6 C 10,1 km/h (2 Bft)
24.07.2021 13:35 30,2 C 19,8 C 27,3 C 34,9 C 34,9 C 4,7 C 43 % 52 % 1010,9 hPa 0,0 l/m 1,4 km/h (1 Bft) NO 45 5 min 16,2 C 34,9 C 3,5 km/h (1 Bft)
24.07.2021 13:40 29,9 C 19,8 C 27,0 C 34,0 C 34,0 C 4,1 C 44 % 52 % 1010,9 hPa 0,0 l/m 1,3 km/h (1 Bft) NO 45 5 min 16,3 C 34,0 C 3,9 km/h (1 Bft)
24.07.2021 13:45 29,3 C 19,8 C 27,0 C 32,8 C 32,8 C 3,5 C 43 % 51 % 1010,9 hPa 0,0 l/m 2,9 km/h (1 Bft) O-NO 67 5 min 15,4 C 32,8 C 6,6 km/h (2 Bft)
24.07.2021 13:50 29,5 C 19,8 C 27,3 C 33,4 C 33,4 C 3,9 C 44 % 52 % 1010,9 hPa 0,0 l/m 3,7 km/h (1 Bft) NO 45 5 min 15,9 C 33,4 C 10,5 km/h (2 Bft)
24.07.2021 13:55 29,3 C 19,9 C 27,3 C 33,0 C 33,0 C 3,7 C 42 % 49 % 1011,2 hPa 0,0 l/m 4,3 km/h (1 Bft) NO 45 5 min 15,0 C 33,0 C 6,6 km/h (2 Bft)
24.07.2021 14:00 29,2 C 19,9 C 27,1 C 32,8 C 32,8 C 3,6 C 43 % 50 % 1011,2 hPa 0,0 l/m 4,2 km/h (1 Bft) O 90 5 min 15,3 C 32,8 C 4,3 km/h (1 Bft)
24.07.2021 14:05 29,1 C 19,9 C 27,3 C 32,8 C 32,8 C 3,7 C 42 % 48 % 1011,2 hPa 0,0 l/m 4,3 km/h (1 Bft) O 90 5 min 14,9 C 32,8 C 1,8 km/h (1 Bft)
24.07.2021 14:10 29,5 C 19,9 C 27,5 C 33,8 C 33,8 C 4,3 C 45 % 50 % 1011,2 hPa 0,0 l/m 3,4 km/h (1 Bft) O-NO 67 5 min 16,3 C 33,8 C 3,2 km/h (1 Bft)
24.07.2021 14:15 30,0 C 19,9 C 27,9 C 35,7 C 35,7 C 5,7 C 45 % 49 % 1011,2 hPa 0,0 l/m 1,4 km/h (1 Bft) O 90 5 min 16,7 C 35,7 C 1,6 km/h (1 Bft)
24.07.2021 14:20 30,0 C 20,0 C 28,1 C 35,8 C 35,8 C 5,8 C 44 % 49 % 1011,2 hPa 0,0 l/m 2,1 km/h (1 Bft) O 90 5 min 16,4 C 35,8 C 2,9 km/h (1 Bft)
24.07.2021 14:25 29,9 C 19,9 C 27,9 C 35,8 C 35,8 C 5,9 C 43 % 49 % 1011,2 hPa 0,0 l/m 2,9 km/h (1 Bft) O-NO 67 5 min 15,9 C 35,8 C 3,5 km/h (1 Bft)
24.07.2021 14:30 29,8 C 19,9 C 27,8 C 35,5 C 35,5 C 5,7 C 44 % 50 % 1011,2 hPa 0,0 l/m 2,3 km/h (1 Bft) O-NO 67 5 min 16,2 C 35,5 C 2,1 km/h (1 Bft)
24.07.2021 14:35 30,1 C 20,0 C 27,5 C 34,8 C 34,8 C 4,7 C 44 % 51 % 1011,0 hPa 0,0 l/m 1,4 km/h (1 Bft) O-SO 112 5 min 16,5 C 34,8 C 0,0 km/h (0 Bft)
24.07.2021 14:40 29,9 C 20,0 C 27,1 C 33,7 C 33,7 C 3,8 C 44 % 51 % 1011,0 hPa 0,0 l/m 0,5 km/h (0 Bft) SO 135 5 min 16,3 C 33,7 C 0,0 km/h (0 Bft)
24.07.2021 14:45 29,5 C 20,1 C 26,7 C 32,2 C 32,2 C 2,7 C 44 % 52 % 1011,0 hPa 0,0 l/m 0,8 km/h (0 Bft) NO 45 0 min 15,9 C 32,2 C 3,2 km/h (1 Bft)
24.07.2021 14:50 29,0 C 20,1 C 26,5 C 31,2 C 31,2 C 2,2 C 43 % 52 % 1011,0 hPa 0,0 l/m 2,1 km/h (1 Bft) NO 45 0 min 15,1 C 31,2 C 4,7 km/h (1 Bft)
24.07.2021 14:55 28,7 C 20,1 C 26,2 C 30,1 C 30,1 C 1,4 C 45 % 53 % 1011,1 hPa 0,0 l/m 2,4 km/h (1 Bft) O-NO 67 0 min 15,6 C 30,1 C 7,7 km/h (2 Bft)
24.07.2021 15:00 28,5 C 20,1 C 26,0 C 29,8 C 29,8 C 1,3 C 46 % 53 % 1011,1 hPa 0,0 l/m 1,3 km/h (1 Bft) N-NO 22 0 min 15,7 C 29,8 C 0,0 km/h (0 Bft)
24.07.2021 15:05 28,5 C 20,1 C 25,9 C 29,7 C 29,7 C 1,2 C 46 % 56 % 1011,1 hPa 0,0 l/m 1,0 km/h (0 Bft) O-NO 67 0 min 15,7 C 29,7 C 2,7 km/h (1 Bft)
24.07.2021 15:10 28,3 C 20,1 C 25,7 C 29,7 C 29,7 C 1,4 C 47 % 56 % 1011,1 hPa 0,0 l/m 0,8 km/h (0 Bft) O-NO 67 0 min 15,9 C 29,7 C 2,3 km/h (1 Bft)
24.07.2021 15:15 28,2 C 20,1 C 25,6 C 29,7 C 29,7 C 1,5 C 48 % 56 % 1011,1 hPa 0,0 l/m 1,0 km/h (0 Bft) NO 45 0 min 16,1 C 29,7 C 0,0 km/h (0 Bft)
24.07.2021 15:20 28,2 C 20,2 C 26,1 C 30,9 C 30,9 C 2,7 C 47 % 54 % 1011,1 hPa 0,0 l/m 2,7 km/h (1 Bft) O-NO 67 0 min 15,8 C 30,9 C 9,0 km/h (2 Bft)
24.07.2021 15:25 28,4 C 20,2 C 26,1 C 30,9 C 30,9 C 2,5 C 48 % 55 % 1011,1 hPa 0,0 l/m 2,9 km/h (1 Bft) W-SW 247 0 min 16,3 C 30,9 C 2,3 km/h (1 Bft)
24.07.2021 15:30 28,5 C 20,2 C 25,9 C 30,6 C 30,6 C 2,1 C 48 % 56 % 1011,1 hPa 0,0 l/m 2,3 km/h (1 Bft) O-NO 67 0 min 16,4 C 30,6 C 10,9 km/h (2 Bft)
24.07.2021 15:35 28,1 C 20,2 C 25,7 C 29,7 C 29,7 C 1,6 C 47 % 55 % 1011,1 hPa 0,0 l/m 1,3 km/h (1 Bft) O-NO 67 0 min 15,7 C 29,7 C 4,8 km/h (1 Bft)
24.07.2021 15:40 28,1 C 20,3 C 25,7 C 29,4 C 29,4 C 1,3 C 47 % 56 % 1011,1 hPa 0,0 l/m 1,8 km/h (1 Bft) O-NO 67 0 min 15,7 C 29,4 C 2,1 km/h (1 Bft)
24.07.2021 15:45 28,0 C 20,3 C 25,7 C 29,4 C 29,4 C 1,4 C 48 % 57 % 1011,1 hPa 0,0 l/m 2,4 km/h (1 Bft) NO 45 0 min 15,9 C 29,4 C 1,8 km/h (1 Bft)
24.07.2021 15:50 28,0 C 20,3 C 25,7 C 29,5 C 29,5 C 1,5 C 49 % 57 % 1011,1 hPa 0,0 l/m 2,1 km/h (1 Bft) O-NO 67 0 min 16,3 C 29,5 C 0,0 km/h (0 Bft)
24.07.2021 15:55 28,1 C 20,3 C 25,9 C 30,2 C 30,2 C 2,1 C 49 % 57 % 1011,1 hPa 0,0 l/m 1,1 km/h (1 Bft) W-NW 292 0 min 16,4 C 30,2 C 1,6 km/h (1 Bft)
24.07.2021 16:00 28,2 C 20,4 C 26,2 C 31,1 C 31,1 C 2,9 C 51 % 58 % 1011,1 hPa 0,0 l/m 0,6 km/h (0 Bft) NO 45 0 min 17,1 C 31,1 C 0,0 km/h (0 Bft)
24.07.2021 16:05 28,4 C 20,3 C 26,4 C 32,4 C 32,4 C 4,0 C 47 % 55 % 1011,1 hPa 0,0 l/m 1,8 km/h (1 Bft) O 90 5 min 16,0 C 32,4 C 6,1 km/h (2 Bft)
24.07.2021 16:10 28,4 C 20,3 C 26,4 C 31,8 C 31,8 C 3,4 C 47 % 54 % 1011,1 hPa 0,0 l/m 3,4 km/h (1 Bft) N-NW 337 5 min 16,0 C 31,8 C 12,2 km/h (2 Bft)
24.07.2021 16:15 28,4 C 20,3 C 26,3 C 31,0 C 31,0 C 2,6 C 49 % 57 % 1010,9 hPa 0,0 l/m 2,6 km/h (1 Bft) N-NO 22 0 min 16,6 C 31,0 C 0,0 km/h (0 Bft)
24.07.2021 16:20 28,5 C 20,3 C 26,1 C 31,0 C 31,0 C 2,5 C 49 % 58 % 1010,9 hPa 0,0 l/m 0,2 km/h (0 Bft) N-NO 22 0 min 16,7 C 31,0 C 0,0 km/h (0 Bft)
24.07.2021 16:25 28,4 C 20,4 C 26,3 C 31,5 C 31,5 C 3,1 C 48 % 56 % 1010,9 hPa 0,0 l/m 1,1 km/h (1 Bft) O-NO 67 0 min 16,3 C 31,5 C 0,0 km/h (0 Bft)
24.07.2021 16:30 28,5 C 20,4 C 26,4 C 31,6 C 31,6 C 3,1 C 48 % 55 % 1010,9 hPa 0,0 l/m 2,3 km/h (1 Bft) NO 45 0 min 16,4 C 31,6 C 9,2 km/h (2 Bft)
24.07.2021 16:35 28,5 C 20,4 C 26,8 C 31,8 C 31,8 C 3,3 C 46 % 53 % 1010,8 hPa 0,0 l/m 4,0 km/h (1 Bft) NO 45 5 min 15,7 C 31,8 C 4,2 km/h (1 Bft)
24.07.2021 16:40 28,7 C 20,4 C 26,9 C 32,4 C 32,4 C 3,7 C 48 % 54 % 1010,8 hPa 0,0 l/m 3,7 km/h (1 Bft) W 270 5 min 16,6 C 32,4 C 0,0 km/h (0 Bft)
24.07.2021 16:45 28,9 C 20,4 C 26,7 C 32,4 C 32,4 C 3,5 C 50 % 56 % 1010,8 hPa 0,0 l/m 0,6 km/h (0 Bft) N-NO 22 5 min 17,4 C 32,4 C 0,0 km/h (0 Bft)
24.07.2021 16:50 28,8 C 20,4 C 26,5 C 32,0 C 32,0 C 3,2 C 49 % 54 % 1010,8 hPa 0,0 l/m 0,2 km/h (0 Bft) O 90 0 min 17,0 C 32,0 C 0,0 km/h (0 Bft)
24.07.2021 16:55 28,6 C 20,5 C 26,2 C 31,1 C 31,1 C 2,5 C 48 % 56 % 1010,6 hPa 0,0 l/m 0,2 km/h (0 Bft) N-NW 337 0 min 16,5 C 31,1 C 0,0 km/h (0 Bft)
24.07.2021 17:00 28,5 C 20,5 C 26,1 C 30,3 C 30,3 C 1,8 C 48 % 56 % 1010,6 hPa 0,0 l/m 0,8 km/h (0 Bft) SO 135 0 min 16,4 C 30,3 C 0,0 km/h (0 Bft)
24.07.2021 17:05 28,3 C 20,5 C 26,0 C 29,9 C 29,9 C 1,6 C 48 % 56 % 1010,6 hPa 0,0 l/m 1,6 km/h (1 Bft) O-NO 67 0 min 16,2 C 29,9 C 0,0 km/h (0 Bft)
24.07.2021 17:10 28,2 C 20,5 C 26,0 C 29,9 C 29,9 C 1,7 C 49 % 57 % 1010,6 hPa 0,0 l/m 1,0 km/h (0 Bft) NO 45 0 min 16,5 C 29,9 C 0,0 km/h (0 Bft)
24.07.2021 17:15 28,3 C 20,5 C 26,0 C 30,0 C 30,0 C 1,7 C 49 % 57 % 1010,6 hPa 0,0 l/m 0,5 km/h (0 Bft) O-NO 67 0 min 16,5 C 30,0 C 0,0 km/h (0 Bft)
24.07.2021 17:20 28,3 C 20,5 C 25,9 C 29,9 C 29,9 C 1,6 C 49 % 57 % 1010,6 hPa 0,0 l/m 0,6 km/h (0 Bft) NO 45 0 min 16,5 C 29,9 C 2,1 km/h (1 Bft)
24.07.2021 17:25 28,2 C 20,6 C 25,8 C 29,5 C 29,5 C 1,3 C 50 % 58 % 1010,6 hPa 0,0 l/m 0,2 km/h (0 Bft) O-NO 67 0 min 16,8 C 29,5 C 0,0 km/h (0 Bft)
24.07.2021 17:30 28,3 C 20,6 C 25,7 C 29,4 C 29,4 C 1,1 C 51 % 60 % 1010,6 hPa 0,0 l/m 0,2 km/h (0 Bft) N-NW 337 0 min 17,2 C 29,4 C 0,0 km/h (0 Bft)
24.07.2021 17:35 28,2 C 20,7 C 25,5 C 28,9 C 28,9 C 0,7 C 52 % 59 % 1010,4 hPa 0,0 l/m 0,0 km/h (0 Bft) N-NW 337 0 min 17,4 C 28,9 C 0,0 km/h (0 Bft)
24.07.2021 17:40 28,1 C 20,7 C 25,3 C 28,5 C 28,5 C 0,4 C 52 % 61 % 1010,4 hPa 0,0 l/m 0,0 km/h (0 Bft) N-NW 337 0 min 17,3 C 28,5 C 0,0 km/h (0 Bft)
24.07.2021 17:45 27,9 C 20,7 C 25,0 C 28,0 C 28,0 C 0,1 C 52 % 62 % 1010,4 hPa 0,0 l/m 0,0 km/h (0 Bft) N-NW 337 0 min 17,1 C 28,0 C 0,0 km/h (0 Bft)
24.07.2021 17:50 27,8 C 20,7 C 24,9 C 27,7 C 27,6 C 0,0 C 52 % 62 % 1010,4 hPa 0,0 l/m 0,0 km/h (0 Bft) N-NW 337 0 min 17,0 C 27,6 C 0,0 km/h (0 Bft)
24.07.2021 17:55 27,5 C 20,7 C 24,7 C 27,4 C 27,2 C 0,0 C 52 % 62 % 1010,3 hPa 0,0 l/m 0,0 km/h (0 Bft) N-NW 337 0 min 16,7 C 27,2 C 0,0 km/h (0 Bft)
24.07.2021 18:00 27,4 C 20,7 C 24,6 C 27,2 C 26,9 C 0,0 C 54 % 63 % 1010,3 hPa 0,0 l/m 0,0 km/h (0 Bft) N-NW 337 0 min 17,3 C 26,9 C 0,0 km/h (0 Bft)
24.07.2021 18:05 27,1 C 20,7 C 24,5 C 27,0 C 26,7 C 0,0 C 53 % 62 % 1010,3 hPa 0,0 l/m 0,2 km/h (0 Bft) O-NO 67 0 min 16,7 C 26,7 C 2,3 km/h (1 Bft)
24.07.2021 18:10 26,9 C 20,7 C 24,5 C 26,8 C 26,6 C 0,0 C 53 % 63 % 1010,3 hPa 0,0 l/m 0,3 km/h (0 Bft) O-NO 67 0 min 16,5 C 26,6 C 0,0 km/h (0 Bft)
24.07.2021 18:15 26,8 C 20,7 C 24,5 C 26,8 C 26,7 C 0,0 C 53 % 63 % 1010,2 hPa 0,0 l/m 0,6 km/h (0 Bft) O-NO 67 0 min 16,4 C 26,7 C 0,0 km/h (0 Bft)
24.07.2021 18:20 26,7 C 20,7 C 24,4 C 26,8 C 26,8 C 0,1 C 53 % 62 % 1010,2 hPa 0,0 l/m 0,3 km/h (0 Bft) O-NO 67 0 min 16,3 C 26,8 C 0,0 km/h (0 Bft)
24.07.2021 18:25 26,7 C 20,8 C 24,4 C 26,9 C 26,9 C 0,2 C 54 % 63 % 1010,2 hPa 0,0 l/m 0,2 km/h (0 Bft) O-NO 67 0 min 16,6 C 26,9 C 0,0 km/h (0 Bft)
24.07.2021 18:30 26,6 C 20,8 C 24,4 C 26,9 C 26,9 C 0,3 C 54 % 62 % 1010,2 hPa 0,0 l/m 0,2 km/h (0 Bft) O-NO 67 0 min 16,5 C 26,9 C 0,0 km/h (0 Bft)
24.07.2021 18:35 26,7 C 20,8 C 24,3 C 27,0 C 27,0 C 0,3 C 55 % 64 % 1010,0 hPa 0,0 l/m 0,0 km/h (0 Bft) O-NO 67 0 min 16,9 C 27,0 C 0,0 km/h (0 Bft)
24.07.2021 18:40 26,7 C 20,8 C 24,3 C 26,9 C 26,9 C 0,2 C 56 % 66 % 1010,0 hPa 0,0 l/m 0,0 km/h (0 Bft) O-NO 67 0 min 17,2 C 26,9 C 0,0 km/h (0 Bft)
24.07.2021 18:45 26,5 C 20,8 C 24,3 C 26,8 C 26,8 C 0,3 C 56 % 66 % 1010,0 hPa 0,0 l/m 0,0 km/h (0 Bft) O-NO 67 0 min 17,0 C 26,8 C 0,0 km/h (0 Bft)
24.07.2021 18:50 26,4 C 20,8 C 24,2 C 26,6 C 26,6 C 0,2 C 57 % 65 % 1010,0 hPa 0,0 l/m 0,0 km/h (0 Bft) O-NO 67 0 min 17,2 C 26,6 C 1,6 km/h (1 Bft)
24.07.2021 18:55 26,3 C 20,8 C 24,1 C 26,4 C 26,4 C 0,1 C 56 % 64 % 1009,9 hPa 0,0 l/m 0,2 km/h (0 Bft) O-NO 67 0 min 16,8 C 26,4 C 0,0 km/h (0 Bft)
24.07.2021 19:00 26,2 C 20,8 C 24,1 C 26,4 C 26,4 C 0,2 C 56 % 65 % 1009,9 hPa 0,0 l/m 0,2 km/h (0 Bft) O-NO 67 0 min 16,7 C 26,4 C 0,0 km/h (0 Bft)
24.07.2021 19:05 26,2 C 20,8 C 24,0 C 26,3 C 26,3 C 0,1 C 56 % 65 % 1009,9 hPa 0,0 l/m 0,0 km/h (0 Bft) O-NO 67 0 min 16,7 C 26,3 C 0,0 km/h (0 Bft)
24.07.2021 19:10 26,1 C 20,8 C 24,0 C 26,4 C 26,4 C 0,3 C 57 % 65 % 1009,9 hPa 0,0 l/m 0,2 km/h (0 Bft) O-NO 67 0 min 16,9 C 26,4 C 2,6 km/h (1 Bft)
24.07.2021 19:15 26,1 C 20,9 C 24,1 C 26,4 C 26,4 C 0,3 C 57 % 65 % 1009,7 hPa 0,0 l/m 0,3 km/h (0 Bft) O-NO 67 0 min 16,9 C 26,4 C 0,0 km/h (0 Bft)
24.07.2021 19:20 26,1 C 20,9 C 24,0 C 26,4 C 26,4 C 0,3 C 57 % 65 % 1009,7 hPa 0,0 l/m 0,2 km/h (0 Bft) O-NO 67 0 min 16,9 C 26,4 C 0,0 km/h (0 Bft)
24.07.2021 19:25 26,0 C 20,9 C 24,0 C 26,4 C 26,4 C 0,4 C 57 % 64 % 1009,7 hPa 0,0 l/m 0,0 km/h (0 Bft) O-NO 67 0 min 16,8 C 26,4 C 0,0 km/h (0 Bft)
24.07.2021 19:30 26,0 C 20,9 C 23,9 C 26,2 C 26,2 C 0,2 C 57 % 65 % 1009,7 hPa 0,0 l/m 0,0 km/h (0 Bft) O-NO 67 0 min 16,8 C 26,2 C 0,0 km/h (0 Bft)
24.07.2021 19:35 26,0 C 20,9 C 23,8 C 26,0 C 26,0 C 0,0 C 57 % 66 % 1009,6 hPa 0,0 l/m 0,2 km/h (0 Bft) O-NO 67 0 min 16,8 C 26,0 C 2,3 km/h (1 Bft)
24.07.2021 19:40 25,8 C 20,9 C 23,7 C 25,8 C 25,8 C 0,0 C 57 % 65 % 1009,6 hPa 0,0 l/m 0,8 km/h (0 Bft) O-NO 67 0 min 16,6 C 25,8 C 0,0 km/h (0 Bft)
24.07.2021 19:45 25,7 C 20,9 C 23,6 C 25,6 C 25,5 C 0,0 C 56 % 64 % 1009,6 hPa 0,0 l/m 1,3 km/h (1 Bft) O-NO 67 0 min 16,2 C 25,5 C 1,8 km/h (1 Bft)
24.07.2021 19:50 25,6 C 20,9 C 23,5 C 25,5 C 25,4 C 0,0 C 56 % 64 % 1009,6 hPa 0,0 l/m 0,8 km/h (0 Bft) O-NO 67 0 min 16,2 C 25,4 C 0,0 km/h (0 Bft)
24.07.2021 19:55 25,4 C 20,9 C 23,5 C 25,3 C 25,2 C 0,0 C 56 % 64 % 1009,5 hPa 0,0 l/m 0,3 km/h (0 Bft) O-NO 67 0 min 16,0 C 25,2 C 2,9 km/h (1 Bft)
24.07.2021 20:00 25,4 C 20,9 C 23,5 C 25,3 C 25,2 C 0,0 C 57 % 64 % 1009,5 hPa 0,0 l/m 1,3 km/h (1 Bft) NO 45 0 min 16,2 C 25,2 C 4,2 km/h (1 Bft)
24.07.2021 20:05 25,3 C 20,9 C 23,5 C 25,4 C 25,4 C 0,1 C 57 % 64 % 1009,5 hPa 0,0 l/m 2,9 km/h (1 Bft) O-NO 67 0 min 16,2 C 25,4 C 3,4 km/h (1 Bft)
24.07.2021 20:10 25,3 C 20,9 C 23,4 C 25,5 C 25,5 C 0,2 C 57 % 64 % 1009,5 hPa 0,0 l/m 3,1 km/h (1 Bft) O-NO 67 0 min 16,2 C 25,5 C 2,7 km/h (1 Bft)
24.07.2021 20:15 25,2 C 20,9 C 23,3 C 25,3 C 25,3 C 0,1 C 57 % 64 % 1009,4 hPa 0,0 l/m 2,7 km/h (1 Bft) NO 45 0 min 16,1 C 25,3 C 4,5 km/h (1 Bft)
24.07.2021 20:20 25,1 C 20,9 C 23,2 C 25,1 C 25,1 C 0,0 C 57 % 64 % 1009,4 hPa 0,0 l/m 2,9 km/h (1 Bft) O-NO 67 0 min 16,0 C 25,1 C 4,2 km/h (1 Bft)
24.07.2021 20:25 25,0 C 20,9 C 22,9 C 24,9 C 24,7 C 0,0 C 57 % 65 % 1009,4 hPa 0,0 l/m 3,5 km/h (1 Bft) O-NO 67 0 min 15,9 C 24,7 C 3,9 km/h (1 Bft)
24.07.2021 20:30 24,8 C 20,9 C 22,9 C 24,7 C 24,5 C 0,0 C 58 % 65 % 1009,4 hPa 0,0 l/m 3,2 km/h (1 Bft) SO 135 0 min 16,0 C 24,5 C 3,5 km/h (1 Bft)
24.07.2021 20:35 24,7 C 20,9 C 22,8 C 24,5 C 24,1 C 0,0 C 59 % 65 % 1009,3 hPa 0,0 l/m 2,7 km/h (1 Bft) O-NO 67 0 min 16,1 C 24,1 C 5,8 km/h (2 Bft)
24.07.2021 20:40 24,5 C 20,9 C 22,7 C 24,3 C 24,0 C 0,0 C 59 % 65 % 1009,3 hPa 0,0 l/m 3,2 km/h (1 Bft) O-NO 67 0 min 15,9 C 24,0 C 6,6 km/h (2 Bft)
24.07.2021 20:45 24,4 C 20,9 C 22,7 C 24,2 C 23,9 C 0,0 C 59 % 65 % 1009,3 hPa 0,0 l/m 4,0 km/h (1 Bft) O-NO 67 0 min 15,9 C 23,9 C 3,1 km/h (1 Bft)
24.07.2021 20:50 24,3 C 20,9 C 22,5 C 24,1 C 23,7 C 0,0 C 59 % 65 % 1009,3 hPa 0,0 l/m 3,2 km/h (1 Bft) O-NO 67 0 min 15,8 C 23,7 C 1,9 km/h (1 Bft)
24.07.2021 20:55 24,2 C 20,9 C 22,4 C 24,0 C 23,5 C 0,0 C 59 % 66 % 1009,4 hPa 0,0 l/m 1,0 km/h (0 Bft) O-NO 67 0 min 15,7 C 23,5 C 0,0 km/h (0 Bft)
24.07.2021 21:00 24,0 C 21,0 C 22,2 C 23,7 C 23,2 C 0,0 C 60 % 67 % 1009,4 hPa 0,0 l/m 0,2 km/h (0 Bft) O-NO 67 0 min 15,7 C 23,2 C 0,0 km/h (0 Bft)
24.07.2021 21:05 23,9 C 21,0 C 22,1 C 23,6 C 22,9 C 0,0 C 60 % 67 % 1009,4 hPa 0,0 l/m 0,0 km/h (0 Bft) O-NO 67 0 min 15,7 C 22,9 C 0,0 km/h (0 Bft)
24.07.2021 21:10 23,7 C 21,0 C 22,1 C 23,3 C 22,6 C 0,0 C 61 % 68 % 1009,4 hPa 0,0 l/m 0,0 km/h (0 Bft) NO 45 0 min 15,7 C 22,6 C 0,0 km/h (0 Bft)
24.07.2021 21:15 23,5 C 21,0 C 21,9 C 23,2 C 22,5 C 0,0 C 62 % 68 % 1009,2 hPa 0,0 l/m 0,2 km/h (0 Bft) O 90 0 min 15,8 C 22,5 C 2,9 km/h (1 Bft)
24.07.2021 21:20 23,4 C 21,0 C 21,8 C 23,1 C 22,5 C 0,0 C 62 % 68 % 1009,2 hPa 0,0 l/m 0,2 km/h (0 Bft) O-NO 67 0 min 15,7 C 22,5 C 0,0 km/h (0 Bft)
24.07.2021 21:25 23,3 C 21,0 C 21,8 C 23,0 C 22,5 C 0,0 C 62 % 69 % 1009,2 hPa 0,0 l/m 0,2 km/h (0 Bft) S 180 0 min 15,6 C 22,5 C 0,0 km/h (0 Bft)
24.07.2021 21:30 23,3 C 21,0 C 21,7 C 23,0 C 22,5 C 0,0 C 63 % 69 % 1009,2 hPa 0,0 l/m 0,2 km/h (0 Bft) S-SO 157 0 min 15,9 C 22,5 C 0,0 km/h (0 Bft)
24.07.2021 21:35 23,1 C 21,0 C 21,7 C 22,9 C 22,4 C 0,0 C 63 % 69 % 1009,4 hPa 0,0 l/m 0,2 km/h (0 Bft) N-NO 22 0 min 15,7 C 22,4 C 1,9 km/h (1 Bft)
24.07.2021 21:40 23,1 C 21,0 C 21,6 C 22,9 C 22,5 C 0,0 C 63 % 70 % 1009,4 hPa 0,0 l/m 1,1 km/h (1 Bft) O-NO 67 0 min 15,7 C 22,5 C 2,7 km/h (1 Bft)
24.07.2021 21:45 23,3 C 21,0 C 21,6 C 23,1 C 22,7 C 0,0 C 63 % 69 % 1009,4 hPa 0,0 l/m 2,1 km/h (1 Bft) SO 135 0 min 15,9 C 22,7 C 0,0 km/h (0 Bft)
24.07.2021 21:50 23,3 C 21,0 C 21,6 C 23,1 C 22,7 C 0,0 C 63 % 69 % 1009,4 hPa 0,0 l/m 1,3 km/h (1 Bft) O-SO 112 0 min 15,9 C 22,7 C 0,0 km/h (0 Bft)
24.07.2021 21:55 23,2 C 21,0 C 21,5 C 23,0 C 22,5 C 0,0 C 64 % 71 % 1009,4 hPa 0,0 l/m 0,2 km/h (0 Bft) NO 45 0 min 16,0 C 22,5 C 3,4 km/h (1 Bft)
24.07.2021 22:00 23,1 C 21,0 C 21,4 C 22,9 C 22,4 C 0,0 C 64 % 72 % 1009,4 hPa 0,0 l/m 0,3 km/h (0 Bft) O-NO 67 0 min 15,9 C 22,4 C 0,0 km/h (0 Bft)
24.07.2021 22:05 23,0 C 21,0 C 21,4 C 22,8 C 22,3 C 0,0 C 65 % 72 % 1009,4 hPa 0,0 l/m 0,8 km/h (0 Bft) N-NO 22 0 min 16,1 C 22,3 C 0,0 km/h (0 Bft)
24.07.2021 22:10 22,8 C 21,0 C 21,3 C 22,6 C 22,1 C 0,0 C 65 % 72 % 1009,4 hPa 0,0 l/m 0,5 km/h (0 Bft) NO 45 0 min 15,9 C 22,1 C 2,3 km/h (1 Bft)
24.07.2021 22:15 22,7 C 21,0 C 21,2 C 22,4 C 21,9 C 0,0 C 65 % 71 % 1009,1 hPa 0,0 l/m 0,0 km/h (0 Bft) O-NO 67 0 min 15,8 C 21,9 C 0,0 km/h (0 Bft)
24.07.2021 22:20 22,6 C 21,0 C 21,1 C 22,3 C 21,6 C 0,0 C 65 % 71 % 1009,1 hPa 0,0 l/m 0,0 km/h (0 Bft) O-NO 67 0 min 15,7 C 21,6 C 0,0 km/h (0 Bft)
24.07.2021 22:25 22,4 C 21,0 C 20,9 C 22,1 C 21,4 C 0,0 C 65 % 71 % 1009,1 hPa 0,0 l/m 0,0 km/h (0 Bft) O-NO 67 0 min 15,5 C 21,4 C 0,0 km/h (0 Bft)
24.07.2021 22:30 22,3 C 21,0 C 20,8 C 21,9 C 21,1 C 0,0 C 66 % 74 % 1009,1 hPa 0,0 l/m 0,0 km/h (0 Bft) O-NO 67 0 min 15,6 C 21,1 C 0,0 km/h (0 Bft)
24.07.2021 22:35 22,1 C 21,0 C 20,5 C 21,6 C 20,6 C 0,0 C 68 % 74 % 1009,2 hPa 0,0 l/m 0,0 km/h (0 Bft) O-NO 67 0 min 15,9 C 20,6 C 0,0 km/h (0 Bft)
24.07.2021 22:40 22,1 C 21,0 C 20,3 C 21,5 C 20,3 C 0,0 C 68 % 75 % 1009,2 hPa 0,0 l/m 0,0 km/h (0 Bft) O-NO 67 0 min 15,9 C 20,3 C 0,0 km/h (0 Bft)
24.07.2021 22:45 21,7 C 21,0 C 20,3 C 21,2 C 20,1 C 0,0 C 68 % 75 % 1009,2 hPa 0,0 l/m 0,0 km/h (0 Bft) N 360 0 min 15,5 C 20,1 C 0,0 km/h (0 Bft)
24.07.2021 22:50 21,6 C 21,0 C 20,2 C 21,1 C 20,0 C 0,0 C 69 % 75 % 1009,2 hPa 0,0 l/m 0,0 km/h (0 Bft) N 360 0 min 15,7 C 20,0 C 0,0 km/h (0 Bft)
24.07.2021 22:55 21,4 C 21,0 C 20,1 C 20,9 C 19,8 C 0,0 C 69 % 75 % 1009,4 hPa 0,0 l/m 0,0 km/h (0 Bft) N 360 0 min 15,5 C 19,8 C 0,0 km/h (0 Bft)
24.07.2021 23:00 21,2 C 21,0 C 20,0 C 20,8 C 19,9 C 0,0 C 69 % 75 % 1009,4 hPa 0,0 l/m 0,0 km/h (0 Bft) N-NO 22 0 min 15,3 C 19,9 C 0,0 km/h (0 Bft)
24.07.2021 23:05 21,0 C 21,0 C 19,8 C 20,6 C 19,8 C 0,0 C 70 % 76 % 1009,4 hPa 0,0 l/m 0,0 km/h (0 Bft) N-NO 22 0 min 15,3 C 19,8 C 0,0 km/h (0 Bft)
24.07.2021 23:10 21,1 C 21,0 C 19,7 C 20,6 C 19,6 C 0,0 C 71 % 77 % 1009,4 hPa 0,0 l/m 0,0 km/h (0 Bft) N-NO 22 0 min 15,6 C 19,6 C 0,0 km/h (0 Bft)
24.07.2021 23:15 20,9 C 21,0 C 19,7 C 20,4 C 19,4 C 0,0 C 72 % 77 % 1009,8 hPa 0,0 l/m 0,0 km/h (0 Bft) N-NO 22 0 min 15,7 C 19,4 C 0,0 km/h (0 Bft)
24.07.2021 23:20 20,7 C 21,0 C 19,7 C 20,3 C 19,4 C 0,0 C 72 % 77 % 1009,8 hPa 0,0 l/m 0,0 km/h (0 Bft) N-NO 22 0 min 15,5 C 19,4 C 0,0 km/h (0 Bft)
24.07.2021 23:25 20,6 C 21,1 C 19,7 C 20,3 C 19,6 C 0,0 C 72 % 77 % 1009,8 hPa 0,0 l/m 0,0 km/h (0 Bft) N-NO 22 0 min 15,4 C 19,6 C 0,0 km/h (0 Bft)
24.07.2021 23:30 20,5 C 21,0 C 19,7 C 20,2 C 19,7 C 0,0 C 73 % 77 % 1009,8 hPa 0,0 l/m 0,0 km/h (0 Bft) N-NO 22 0 min 15,5 C 19,7 C 0,0 km/h (0 Bft)
24.07.2021 23:35 20,5 C 21,0 C 19,8 C 20,3 C 19,9 C 0,0 C 73 % 76 % 1009,8 hPa 0,0 l/m 0,0 km/h (0 Bft) N-NO 22 0 min 15,5 C 19,9 C 0,0 km/h (0 Bft)
24.07.2021 23:40 20,5 C 21,0 C 19,7 C 20,3 C 20,0 C 0,0 C 73 % 78 % 1009,8 hPa 0,0 l/m 0,0 km/h (0 Bft) N-NO 22 0 min 15,5 C 20,0 C 0,0 km/h (0 Bft)
24.07.2021 23:45 20,5 C 21,0 C 19,7 C 20,4 C 20,1 C 0,0 C 74 % 78 % 1009,8 hPa 0,0 l/m 0,0 km/h (0 Bft) N-NO 22 0 min 15,7 C 20,1 C 0,0 km/h (0 Bft)
24.07.2021 23:50 20,4 C 21,1 C 19,6 C 20,3 C 20,2 C 0,0 C 74 % 78 % 1009,8 hPa 0,0 l/m 0,0 km/h (0 Bft) N-NO 22 0 min 15,6 C 20,2 C 0,0 km/h (0 Bft)
24.07.2021 23:55 20,4 C 21,1 C 19,5 C 20,3 C 20,2 C 0,0 C 74 % 78 % 1009,6 hPa 0,0 l/m 0,0 km/h (0 Bft) N-NO 22 0 min 15,6 C 20,2 C 0,0 km/h (0 Bft)
_ Min-Zeit 05:55 09:10 05:30 05:25 04:55 00:00 13:15 14:05 22:15 - 00:00 - - - 05:35 04:55 00:00
Minimum _ 12,7 C 19,3 C 13,1 C 12,6 C 12,0 C 0,0 C 42 % 48 % 1009,1 hPa - 0,0 km/h (0 Bft) - - - 10,7 C 12,0 C 0,0 km/h (0 Bft)
_ Max-Zeit 13:30 23:25 14:20 12:50 12:50 07:55 05:45 04:40 00:00 00:00 13:55 - - 07:15 12:15 12:50 16:10
Maximum _ 30,2 C 21,1 C 28,1 C 36,5 C 36,5 C 10,2 C 88 % 91 % 1013,9 hPa 0,0 l/m 4,3 km/h
NO (1 Bft)
- - 5 min 17,9 C 36,5 C 12,2 km/h
N-NW (2 Bft)
Durchschnitt _ 21,6 C 20,2 C 20,2 C 23,6 C 23,3 C 2,1 C 68 % 75 % 1011,4 hPa #0,0 l/m 0,6 km/h (0 Bft) O-NO - #6:25 h 15,0 C 23,3 C 0,9 km/h (0 Bft)
2021 www.wetterstation-wechselburg.de